• En España
  • Lista de países
  • Para 7 días
  • Temperatura del agua
  • Mapa Satelital
  • El tiempo en el mapa
  • Informadores
  • user-avatar
    Iniciar sesión

    Tiempo cada hora Prutz

    Hoy, 25 Noviembre, Sábado

    Tiempo Temperatura Precipitaciones Viento Presión Humedad
    00:00 -1°C° 0 mm 3 mps 631 mmHg 89%
    01:00 -1°C° 0 mm 3 mps 631 mmHg 90%
    02:00 -1°C° 0 mm 3 mps 630 mmHg 89%
    03:00 -1°C° 0 mm 3 mps 630 mmHg 89%
    04:00 -1°C° 0 mm 3 mps 629 mmHg 89%
    05:00 -1°C° 0 mm 3 mps 629 mmHg 88%
    06:00 -1°C° 0 mm 3 mps 628 mmHg 88%
    07:00 0°C° 0 mm 3 mps 628 mmHg 87%
    08:00 +1°C° 0 mm 3 mps 628 mmHg 87%
    09:00 +1°C° 0 mm 3 mps 628 mmHg 86%
    10:00 +2°C° 0 mm 3 mps 628 mmHg 86%
    11:00 +2°C° 0,6 mm 3 mps 628 mmHg 89%
    12:00 +3°C° 0,6 mm 2 mps 628 mmHg 91%
    13:00 +3°C° 0,6 mm 2 mps 628 mmHg 94%
    14:00 +2°C° 1,4 mm 2 mps 628 mmHg 95%
    15:00 +2°C° 1,4 mm 2 mps 628 mmHg 95%
    16:00 +1°C° 1,4 mm 2 mps 627 mmHg 96%
    17:00 +1°C° 0,9 mm 2 mps 628 mmHg 96%
    18:00 -1°C° 0,9 mm 2 mps 628 mmHg 96%
    19:00 -1°C° 0,9 mm 2 mps 628 mmHg 96%
    20:00 -2°C° 0,8 mm 3 mps 628 mmHg 96%
    21:00 -2°C° 0,8 mm 3 mps 628 mmHg 95%
    22:00 -4°C° 0,8 mm 3 mps 629 mmHg 95%
    23:00 -5°C° 0,5 mm 3 mps 629 mmHg 95%

    Mañana, 26 Noviembre, Domingo

    Tiempo Temperatura Precipitaciones Viento Presión Humedad
    00:00 -5°C° 0,5 mm 3 mps 629 mmHg 95%
    01:00 -6°C° 0,5 mm 3 mps 629 mmHg 95%
    02:00 -6°C° 0,4 mm 3 mps 629 mmHg 95%
    03:00 -7°C° 0,4 mm 3 mps 630 mmHg 95%
    04:00 -7°C° 0,4 mm 3 mps 630 mmHg 94%
    05:00 -7°C° 0,3 mm 3 mps 630 mmHg 94%
    06:00 -8°C° 0,3 mm 3 mps 631 mmHg 94%
    07:00 -8°C° 0,3 mm 3 mps 631 mmHg 93%
    08:00 -8°C° 0,1 mm 3 mps 632 mmHg 91%
    09:00 -8°C° 0,1 mm 3 mps 632 mmHg 89%
    10:00 -8°C° 0,1 mm 3 mps 632 mmHg 86%
    11:00 -8°C° 0 mm 3 mps 633 mmHg 83%
    12:00 -7°C° 0 mm 3 mps 633 mmHg 80%
    13:00 -7°C° 0 mm 3 mps 633 mmHg 78%
    14:00 -8°C° 0 mm 3 mps 633 mmHg 81%
    15:00 -8°C° 0 mm 2 mps 633 mmHg 85%
    16:00 -9°C° 0 mm 2 mps 632 mmHg 88%
    17:00 -10°C° 0 mm 2 mps 633 mmHg 90%
    18:00 -12°C° 0 mm 2 mps 633 mmHg 91%
    19:00 -13°C° 0 mm 2 mps 633 mmHg 92%
    20:00 -13°C° 0 mm 2 mps 633 mmHg 92%
    21:00 -13°C° 0 mm 2 mps 633 mmHg 91%
    22:00 -13°C° 0 mm 2 mps 634 mmHg 90%
    23:00 -13°C° 0 mm 2 mps 634 mmHg 90%

    Pasado mañana, 27 Noviembre, Lunes

    Tiempo Temperatura Precipitaciones Viento Presión Humedad
    00:00 -11°C° 0 mm 1 mps 634 mmHg 90%
    01:00 -11°C° 0 mm 1 mps 634 mmHg 90%
    02:00 -11°C° 0 mm 1 mps 634 mmHg 90%
    03:00 -11°C° 0 mm 1 mps 634 mmHg 91%
    04:00 -12°C° 0 mm 1 mps 633 mmHg 91%
    05:00 -12°C° 0 mm 1 mps 634 mmHg 91%
    06:00 -12°C° 0 mm 1 mps 634 mmHg 91%
    07:00 -12°C° 0 mm 1 mps 634 mmHg 91%
    08:00 -10°C° 0 mm 1 mps 635 mmHg 88%
    09:00 -9°C° 0 mm 1 mps 635 mmHg 85%
    10:00 -7°C° 0 mm 1 mps 636 mmHg 82%
    11:00 -6°C° 0 mm 1 mps 635 mmHg 79%
    12:00 -4°C° 0 mm 1 mps 635 mmHg 76%
    13:00 -3°C° 0 mm 1 mps 635 mmHg 73%
    14:00 -4°C° 0 mm 1 mps 635 mmHg 77%
    15:00 -6°C° 0 mm 1 mps 634 mmHg 81%
    16:00 -7°C° 0 mm 1 mps 633 mmHg 86%
    17:00 -8°C° 0 mm 1 mps 633 mmHg 85%
    18:00 -9°C° 0 mm 1 mps 633 mmHg 84%
    19:00 -12°C° 0 mm 2 mps 633 mmHg 83%
    20:00 -12°C° 0 mm 2 mps 633 mmHg 77%
    21:00 -10°C° 0 mm 2 mps 633 mmHg 72%
    22:00 -10°C° 0 mm 2 mps 632 mmHg 66%
    23:00 -10°C° 0 mm 2 mps 632 mmHg 64%

    28 Noviembre, Martes

    Tiempo Temperatura Precipitaciones Viento Presión Humedad
    00:00 -10°C° 0 mm 2 mps 632 mmHg 62%
    01:00 -9°C° 0 mm 2 mps 631 mmHg 60%
    02:00 -9°C° 0 mm 2 mps 631 mmHg 61%
    03:00 -7°C° 0 mm 1 mps 631 mmHg 61%
    04:00 -7°C° 0 mm 1 mps 631 mmHg 61%
    05:00 -7°C° 0 mm 1 mps 630 mmHg 62%
    06:00 -8°C° 0 mm 2 mps 630 mmHg 62%
    07:00 -7°C° 0 mm 2 mps 630 mmHg 63%
    08:00 -6°C° 0 mm 2 mps 630 mmHg 64%
    09:00 -4°C° 0 mm 2 mps 630 mmHg 66%
    10:00 -2°C° 0 mm 2 mps 630 mmHg 67%
    11:00 -1°C° 0 mm 2 mps 629 mmHg 68%
    12:00 -1°C° 0 mm 2 mps 629 mmHg 69%
    13:00 +1°C° 0 mm 2 mps 628 mmHg 70%
    14:00 -1°C° 0 mm 2 mps 628 mmHg 72%
    15:00 -2°C° 0 mm 2 mps 627 mmHg 74%
    16:00 -3°C° 0 mm 2 mps 626 mmHg 77%
    17:00 -4°C° 0 mm 2 mps 626 mmHg 77%
    18:00 -5°C° 0 mm 2 mps 626 mmHg 77%
    19:00 -5°C° 0 mm 2 mps 625 mmHg 77%
    20:00 -6°C° 0 mm 2 mps 625 mmHg 77%
    21:00 -7°C° 0 mm 3 mps 625 mmHg 77%
    22:00 -7°C° 0 mm 3 mps 624 mmHg 77%
    23:00 -7°C° 0 mm 3 mps 624 mmHg 78%

    29 Noviembre, Miércoles

    Tiempo Temperatura Precipitaciones Viento Presión Humedad
    00:00 -7°C° 0 mm 3 mps 624 mmHg 79%
    01:00 -7°C° 0 mm 3 mps 624 mmHg 80%
    02:00 -7°C° 0 mm 3 mps 624 mmHg 82%
    03:00 -6°C° 0 mm 2 mps 623 mmHg 83%
    04:00 -6°C° 0 mm 2 mps 623 mmHg 84%
    05:00 -6°C° 0 mm 2 mps 623 mmHg 85%
    06:00 -6°C° 0 mm 2 mps 623 mmHg 86%
    07:00 -6°C° 0 mm 2 mps 623 mmHg 86%
    08:00 -5°C° 0 mm 2 mps 623 mmHg 85%
    09:00 -4°C° 0 mm 2 mps 623 mmHg 85%
    10:00 -3°C° 0 mm 2 mps 624 mmHg 84%
    11:00 -3°C° 0,1 mm 2 mps 623 mmHg 83%
    12:00 -2°C° 0,1 mm 2 mps 623 mmHg 82%
    13:00 -1°C° 0,1 mm 2 mps 623 mmHg 81%
    14:00 -2°C° 0,4 mm 2 mps 623 mmHg 86%
    15:00 0°C° 0,4 mm 1 mps 622 mmHg 90%
    16:00 -1°C° 0,4 mm 1 mps 622 mmHg 94%
    17:00 -1°C° 0,9 mm 1 mps 622 mmHg 95%
    18:00 -2°C° 0,9 mm 1 mps 622 mmHg 95%
    19:00 -2°C° 0,9 mm 1 mps 622 mmHg 96%
    20:00 -2°C° 1,1 mm 1 mps 622 mmHg 96%
    21:00 -2°C° 1,1 mm 1 mps 621 mmHg 96%
    22:00 -3°C° 1,1 mm 1 mps 621 mmHg 96%
    23:00 -3°C° 0,9 mm 1 mps 621 mmHg 96%

    30 Noviembre, Jueves

    Tiempo Temperatura Precipitaciones Viento Presión Humedad
    00:00 -5°C° 0,9 mm 2 mps 621 mmHg 96%
    01:00 -5°C° 0,9 mm 2 mps 620 mmHg 97%
    02:00 -6°C° 0,6 mm 2 mps 620 mmHg 96%
    03:00 -6°C° 0,6 mm 2 mps 620 mmHg 96%
    04:00 -6°C° 0,6 mm 2 mps 620 mmHg 96%
    05:00 -6°C° 0,3 mm 2 mps 620 mmHg 95%
    06:00 -7°C° 0,3 mm 2 mps 620 mmHg 95%
    07:00 -7°C° 0,3 mm 2 mps 620 mmHg 95%
    08:00 -7°C° 0,3 mm 2 mps 620 mmHg 94%
    09:00 -8°C° 0,3 mm 3 mps 621 mmHg 93%
    10:00 -7°C° 0,3 mm 3 mps 621 mmHg 92%
    11:00 -7°C° 0,2 mm 3 mps 621 mmHg 90%
    12:00 -7°C° 0,2 mm 3 mps 622 mmHg 88%
    13:00 -5°C° 0,2 mm 2 mps 622 mmHg 86%
    14:00 -6°C° 0,1 mm 2 mps 622 mmHg 88%
    15:00 -7°C° 0,1 mm 2 mps 622 mmHg 89%
    16:00 -8°C° 0,1 mm 2 mps 622 mmHg 91%
    17:00 -9°C° 0 mm 2 mps 622 mmHg 92%
    18:00 -10°C° 0 mm 2 mps 622 mmHg 93%
    19:00 -13°C° 0 mm 2 mps 621 mmHg 94%
    20:00 -13°C° 0 mm 2 mps 622 mmHg 94%
    21:00 -14°C° 0 mm 2 mps 622 mmHg 93%
    22:00 -14°C° 0 mm 2 mps 622 mmHg 93%
    23:00 -14°C° 0 mm 2 mps 622 mmHg 92%
    Mostrar más